SL-14 DEB, 45334

Orbit data source: Space-Track

SL-14 DEB, 45334 is space debris in LEO originally from a launch on Thu, 15 Aug 1991 UTC launched from the Plesetsk Missile And Space Complex (PKMTR). Debris objects in space refer to the collection of defunct objects orbiting the Earth. Examples of debris include non-operational satellites, rocket bodies, and fragments generated from explosions, collisions, or faulty payload assembly.

Loading next visibility...
Identifier
45334, 1991-056BY
Orbit
LEO
Country
Flag of CISCIS
Related business
Manufacturer
Unknown
Mission
Spacecraft
Bus & Motor
Unknown
Mass
Unknown
Launch date (UTC)
1991-08-15 (34 years ago)
Launch vehicle
Unknown
Launch site
Plesetsk Missile And Space Complex (PKMTR)
Object type
Payload
Rocket body
Debris
Shape & HBR
Unknown shape, 0.1 m
Radar Cross Section
Small (<0.1 m²)

Expand to show TLE details & history
Last TLE update: 2 days ago

TLE from 2 days ago
0 SL-14 DEB
1 45334U 91056BY  26036.90631145  .00000336  00000-0  72643-3 0  9993
2 45334  82.5541 207.4863 0044188 312.5338  47.2062 13.26664364288028
Epoch: 2026-02-05T21:45Z
TLE epoch observation values (Epoch: 2026-02-05T21:45:05.309Z)
Latitude
0.00002°
Longitude
105.16236°
Altitude
1,139.641 km
Speed
7.294 km/s
True Right ascension
13h 49m 56s
True Declination
0° 00' 00"
Sunlit
Object was in daylight at epoch
Visualization orbit readout
Latitude
Unknown
Longitude
Unknown
Altitude
Unknown
Speed
Unknown
Apparent Right ascension
Unknown
Apparent Declination
Unknown
Sunlit
N/A
Visualization observer readout
Local Sidereal Time
13:49:18
Azimuth
Unknown
Elevation
Unknown
Doppler factor
Unknown
Orbital elements
Apogee altitude
1,189.897 km
Perigee altitude
1,123.308 km
Semi-major axis
7,534.739 km
Eccentricity
0.00442
Inclination
82.5541°
RAAN
207.4863°
Arg. of periapsis
312.5338°
True anomaly
47.57916°
Mean anomaly
47.2062°
Eccentric anomaly
47.39254°
Mean motion
3.31849 °/min
Orbital period
108.48 mins
BSTAR
0.00072643
Loading maneuver chart data...
Computing Atmospheric mass density...
Loading historical data...
Loading historical data...
Loading historical data...
Loading historical data...
Loading historical data...
Loading historical data...
Loading historical data...

Documentation

Showing up to 5 results
|